Location: T�chigga el Be�da
(16.4766°N, 9.3887°W)
Time: 06:23:06
(UTC+00:00)

COSMOS 2487 - Pass Details

Date: 27 February 2020
Orbit: 442 x 445 km, 74.7° (Epoch: 07 April)

Event Time Altitude Azimuth Distance (km) Brightness Sun altitude
Rises 20:17:09 0° 337° (NNW) 2,425 6.4 -23.1°
Reaches altitude 10° 20:19:18 10° 329° (NNW) 1,555 5.5 -23.6°
Maximum altitude 20:22:30 39° 259° (W) 678 3.7 -24.4°
Enters shadow 20:23:33 30° 217° (SW) 815 4.0 -24.6°
